Location: Mahannah Oil Field
(37.4664°N, 96.6003°W)
Time: 15:03:11
(UTC+00:00)

Vanguard 1 Rocket - All Passes

Search period start: 23 January 2021 00:00
Search period end: 02 February 2021 00:00
Orbit: 655 x 4221 km, 34.3° (Epoch: 23 January)

Date Brightness Start Highest point End Pass type
(mag) Time Alt. Az. Time Alt. Az. Time Alt. Az.
23 Jan - 00:06:09 10° WSW 00:10:52 24° SSW 00:17:56 10° SSE visible
23 Jan - 15:40:48 10° SSW 15:45:25 16° SSE 15:48:58 10° ESE daylight
23 Jan - 18:05:11 10° SW 18:10:34 41° SSE 18:14:45 10° E daylight
23 Jan - 20:30:39 10° W 20:35:01 59° S 20:39:58 10° ESE daylight
23 Jan - 22:55:19 10° W 22:59:42 31° SSW 23:06:10 10° SE daylight
24 Jan - 01:23:20 10° SW 01:25:41 11° SSW 01:28:23 10° S visible
24 Jan - 14:31:45 10° SSE 14:33:52 11° SSE 14:35:46 10° SE daylight
24 Jan - 16:53:34 10° SW 16:59:45 31° SSE 17:04:02 10° E daylight
24 Jan - 19:19:33 10° WSW 19:24:23 59° S 19:28:47 10° E daylight
24 Jan - 21:44:39 10° W 21:48:51 41° SSW 21:54:26 10° SE daylight
25 Jan - 00:10:21 10° WSW 00:14:05 16° SSW 00:19:01 10° SSE visible
25 Jan - 15:41:55 10° SSW 15:48:38 23° SSE 15:53:11 10° ESE daylight
25 Jan - 18:07:58 10° WSW 18:13:44 51° S 18:18:02 10° E daylight
25 Jan - 20:33:51 10° W 20:38:11 53° S 20:43:00 10° ESE daylight
25 Jan - 22:58:58 10° WSW 23:02:52 23° SSW 23:08:11 10° SSE daylight
26 Jan - 14:30:39 10° SSW 14:37:07 17° SSE 14:41:45 10° ESE daylight
26 Jan - 16:55:55 10° SW 17:02:55 41° SSE 17:07:30 10° E daylight
26 Jan - 19:22:39 10° W 19:27:34 60° S 19:31:57 10° ESE daylight
26 Jan - 21:48:02 10° W 21:52:00 31° SSW 21:57:02 10° SE daylight
27 Jan - 13:20:56 10° S 13:25:10 12° SSE 13:28:39 10° SE daylight
27 Jan - 15:43:38 10° SW 15:51:49 32° SSE 15:56:55 10° E daylight
27 Jan - 18:10:52 10° WSW 18:16:54 58° S 18:21:16 10° E daylight
27 Jan - 20:37:04 10° W 20:41:21 44° SSW 20:45:57 10° ESE daylight
27 Jan - 23:03:06 10° WSW 23:06:02 15° SSW 23:09:38 10° SSE daylight
28 Jan - 14:31:24 10° SSW 14:40:20 25° SSE 14:46:01 10° ESE daylight
28 Jan - 16:58:29 10° WSW 17:06:05 51° S 17:10:50 10° E daylight
28 Jan - 19:25:45 10° W 19:30:45 57° S 19:35:05 10° ESE daylight
28 Jan - 21:51:35 10° WSW 21:55:07 23° SSW 21:59:22 10° SSE daylight
29 Jan - 13:19:45 10° SSW 13:28:23 19° SSE 13:34:22 10° ESE daylight
29 Jan - 15:45:41 10° SW 15:55:00 42° SSE 16:00:24 10° E daylight
29 Jan - 18:13:49 10° W 18:20:05 63° S 18:24:30 10° E daylight
29 Jan - 20:40:21 10° W 20:44:28 34° SSW 20:48:45 10° SE daylight
30 Jan - 12:09:56 10° S 12:15:58 13° SSE 12:20:49 10° SE visible
30 Jan - 14:32:45 10° SW 14:43:31 34° SSE 14:49:47 10° E daylight
30 Jan - 17:01:12 10° WSW 17:09:14 59° S 17:14:07 10° E daylight
30 Jan - 19:28:52 10° W 19:33:53 50° SSW 19:38:09 10° ESE daylight
30 Jan - 21:55:30 10° WSW 21:58:12 15° SSW 22:01:13 10° SSE daylight
31 Jan - 13:20:04 10° SSW 13:31:34 26° SSE 13:38:42 10° ESE daylight
31 Jan - 15:48:00 10° WSW 15:58:07 51° SSE 16:03:47 10° E daylight
31 Jan - 18:16:49 10° W 18:23:14 63° S 18:27:42 10° ESE daylight
31 Jan - 20:43:44 10° W 20:47:31 26° SSW 20:51:22 10° SE daylight
01 Feb - 12:08:19 10° S 12:19:08 20° SSE 12:26:37 10° ESE visible
01 Feb - 14:34:28 10° SW 14:46:39 43° SSE 14:53:19 10° E daylight
01 Feb - 17:04:00 10° WSW 17:12:23 66° S 17:17:22 10° E daylight
01 Feb - 19:32:01 10° W 19:37:00 42° SSW 19:41:09 10° SE daylight
